Preston, MN

3:26 AM CST on February 23, 2017 (GMT -0600)
Preston

Weather History for KFKA - October, 2012

Change the Weather History Date:

Wednesday, October 31, 2012

  Actual Average (KRST) Record (KRST)
Temperature  
Mean Temperature 40 °F -  
Max Temperature 51 °F 52 °F 78 °F (1950)
Min Temperature 28 °F 34 °F 15 °F (1993)
Degree Days  
Heating Degree Days 26    
Moisture  
Dew Point 18 °F    
Average Humidity 49    
Maximum Humidity 72    
Minimum Humidity 17    
Precipitation  
Precipitation 0.00 in - - ()
Sea Level Pressure  
Sea Level Pressure 29.97 in    
Wind  
Wind Speed 8 mph (NW)    
Max Wind Speed 17 mph    
Max Gust Speed 20 mph    
Visibility 10 miles    
Events      
Averages and records for this station are not official NWS values.
T = Trace of Precipitation, MM = Missing Value Source: NWS Daily Summary

Daily Weather History Graph

Daily Weather History Graph

Search for Another Location

Airport or City:

Trip Planner

Search our weather history database for the weather conditions in past years. The results will help you decide how hot, cold, wet, or windy it might be!

Date:

Astronomy

Oct. 31, 2012 Rise Set
Actual Time 7:43 AM CDT 6:00 PM CDT
Civil Twilight 7:14 AM CDT 6:29 PM CDT
Nautical Twilight 6:40 AM CDT 7:03 PM CDT
Astronomical Twilight 6:06 AM CDT 7:37 PM CDT
Moon 7:07 PM CDT (10/31) 9:28 AM CDT (10/31)
Length of Visible Light 11h 15m
Length of Day
10h 16m
Full, 97% of the Moon is Illuminated
Oct 31
Full
Nov 6
Last Quarter
Nov 13
New
Nov 20
First Quarter
Nov 28
Full

Hourly Weather History & Observations

Time (CDT) Temp. Windchill Dew Point Humidity Pressure Visibility Wind Dir Wind Speed Gust Speed Precip Events Conditions
12:30 AM 33.4 °F 26.6 °F 19.4 °F 56% 30.00 in 10.0 mi North 8.1 mph - N/A   Clear
12:50 AM 32.5 °F 25.5 °F 19.6 °F 59% 30.00 in 10.0 mi North 8.1 mph - N/A   Clear
1:10 AM 32.2 °F 25.0 °F 19.4 °F 59% 30.00 in 10.0 mi North 8.1 mph - N/A   Clear
1:30 AM 32.0 °F 25.6 °F 19.8 °F 61% 30.00 in 10.0 mi North 6.9 mph - N/A   Clear
1:50 AM 32.0 °F 25.6 °F 20.3 °F 62% 30.00 in 10.0 mi North 6.9 mph - N/A   Clear
2:10 AM 32.0 °F 24.8 °F 20.8 °F 63% 30.00 in 10.0 mi North 8.1 mph - N/A   Clear
2:30 AM 32.0 °F 24.8 °F 20.8 °F 63% 30.01 in 10.0 mi NNW 8.1 mph - N/A   Clear
2:50 AM 31.8 °F 25.4 °F 20.7 °F 63% 30.01 in 10.0 mi NNW 6.9 mph - N/A   Clear
3:10 AM 31.5 °F 24.2 °F 20.3 °F 63% 30.00 in 10.0 mi NNW 8.1 mph - N/A   Clear
3:30 AM 30.9 °F 22.8 °F 20.5 °F 65% 30.00 in 10.0 mi NNW 9.2 mph - N/A   Clear
3:50 AM 30.9 °F 22.8 °F 20.5 °F 65% 29.99 in 10.0 mi NNW 9.2 mph - N/A   Clear
4:10 AM 31.1 °F 23.7 °F 20.3 °F 64% 29.99 in 10.0 mi NNW 8.1 mph - N/A   Clear
4:30 AM 30.6 °F 23.1 °F 20.7 °F 67% 30.00 in 10.0 mi NNW 8.1 mph - N/A   Clear
4:50 AM 30.4 °F 23.6 °F 20.3 °F 66% 30.01 in 10.0 mi NNW 6.9 mph - N/A   Clear
5:10 AM 30.2 °F 24.3 °F 20.7 °F 68% 30.00 in 10.0 mi NNW 5.8 mph - N/A   Clear
5:30 AM 30.2 °F 26.7 °F 20.5 °F 67% 29.99 in 10.0 mi NNW 3.5 mph - N/A   Clear
5:50 AM 30.0 °F 25.2 °F 20.3 °F 67% 29.99 in 10.0 mi NNW 4.6 mph - N/A   Clear
6:10 AM 30.2 °F 25.4 °F 20.1 °F 66% 29.99 in 10.0 mi North 4.6 mph - N/A   Clear
6:30 AM 30.2 °F 22.6 °F 20.1 °F 66% 29.99 in 10.0 mi NNW 8.1 mph - N/A   Clear
6:50 AM 30.0 °F 24.1 °F 20.1 °F 67% 30.00 in 10.0 mi NNW 5.8 mph - N/A   Clear
7:10 AM 28.0 °F 21.7 °F 19.2 °F 70% 30.00 in 10.0 mi WNW 5.8 mph - N/A   Clear
7:30 AM 28.2 °F 23.1 °F 19.9 °F 71% 29.99 in 10.0 mi NW 4.6 mph - N/A   Clear
7:50 AM 28.4 °F 21.2 °F 20.3 °F 72% 29.99 in 10.0 mi NNW 6.9 mph - N/A   Clear
8:10 AM 28.9 °F 22.8 °F 20.3 °F 70% 29.99 in 10.0 mi NNW 5.8 mph - N/A   Clear
8:30 AM 30.0 °F 24.1 °F 21.4 °F 70% 29.99 in 10.0 mi North 5.8 mph - N/A   Clear
8:50 AM 31.3 °F 24.7 °F 21.7 °F 68% 29.99 in 10.0 mi NNW 6.9 mph - N/A   Clear
9:10 AM 32.0 °F 26.4 °F 22.3 °F 67% 30.00 in 10.0 mi NNW 5.8 mph - N/A   Clear
9:29 AM 33.6 °F 26.8 °F 22.8 °F 65% 30.00 in 10.0 mi North 8.1 mph - N/A   Clear
9:50 AM 35.2 °F 28.1 °F 23.2 °F 62% 30.00 in 10.0 mi NNW 9.2 mph - N/A   Clear
10:10 AM 36.9 °F 29.6 °F 22.8 °F 57% 30.00 in 10.0 mi NNW 10.4 mph - N/A   Clear
10:30 AM 37.6 °F 31.0 °F 22.5 °F 54% 30.00 in 10.0 mi NNW 9.2 mph - N/A   Clear
10:50 AM 38.8 °F 31.6 °F 20.8 °F 48% 30.00 in 10.0 mi North 11.5 mph - N/A   Clear
11:15 AM 40.1 °F 33.2 °F 19.9 °F 44% 29.99 in 10.0 mi North 11.5 mph 17.3 mph N/A   Clear
11:30 AM 41.4 °F 34.3 °F 19.8 °F 42% 29.99 in 10.0 mi NNW 12.7 mph 17.3 mph N/A   Clear
11:50 AM 42.4 °F 36.1 °F 18.9 °F 39% 29.99 in 10.0 mi North 11.5 mph - N/A   Clear
12:10 PM 43.5 °F 36.4 °F 17.6 °F 35% 29.99 in 10.0 mi NW 15.0 mph 18.4 mph N/A   Clear
12:30 PM 44.6 °F 39.7 °F 15.8 °F 31% 29.98 in 10.0 mi NW 9.2 mph - N/A   Clear
12:50 PM 45.5 °F 39.9 °F 15.3 °F 30% 29.97 in 10.0 mi NW 11.5 mph - N/A   Clear
1:30 PM 47.8 °F - 13.3 °F 25% 29.96 in 10.0 mi NW 10.4 mph 17.3 mph N/A   Clear
2:10 PM 49.1 °F - 12.2 °F 23% 29.94 in 10.0 mi NNW 13.8 mph - N/A   Clear
2:50 PM 50.0 °F - 11.5 °F 21% 29.93 in 10.0 mi NNW 12.7 mph - N/A   Clear
3:10 PM 50.5 °F - 11.3 °F 21% 29.93 in 10.0 mi NW 10.4 mph - N/A   Clear
3:30 PM 50.9 °F - 6.6 °F 17% 29.93 in 10.0 mi NNW 13.8 mph 19.6 mph N/A   Clear
3:50 PM 51.1 °F - 7.5 °F 17% 29.93 in 10.0 mi NW 12.7 mph 18.4 mph N/A   Clear
4:10 PM 50.9 °F - 7.2 °F 17% 29.94 in 10.0 mi NW 17.3 mph - N/A   Clear
4:30 PM 50.7 °F - 9.0 °F 19% 29.93 in 10.0 mi NW 13.8 mph 17.3 mph N/A   Clear
4:50 PM 50.0 °F - 6.8 °F 17% 29.93 in 10.0 mi NW 12.7 mph 19.6 mph N/A   Clear
5:30 PM 48.2 °F - 9.9 °F 21% 29.94 in 10.0 mi NW 9.2 mph - N/A   Clear
5:50 PM 46.8 °F - 9.7 °F 22% 29.94 in 10.0 mi NW 9.2 mph - N/A   Clear
6:30 PM 41.7 °F 36.1 °F 14.7 °F 34% 29.94 in 10.0 mi NW 9.2 mph - N/A   Clear
6:50 PM 40.3 °F 33.9 °F 16.5 °F 38% 29.95 in 10.0 mi NW 10.4 mph - N/A   Clear
7:30 PM 40.3 °F 34.9 °F 16.7 °F 39% 29.94 in 10.0 mi NW 8.1 mph - N/A   Clear
7:50 PM 39.2 °F 33.6 °F 16.5 °F 40% 29.95 in 10.0 mi NW 8.1 mph - N/A   Clear
8:10 PM 39.2 °F 33.0 °F 17.1 °F 41% 29.94 in 10.0 mi WNW 9.2 mph - N/A   Clear
8:30 PM 39.2 °F 33.6 °F 16.9 °F 40% 29.94 in 10.0 mi WNW 8.1 mph - N/A   Clear
8:50 PM 39.2 °F 33.0 °F 18.0 °F 42% 29.94 in 10.0 mi WNW 9.2 mph - N/A   Clear
9:10 PM 39.0 °F 33.4 °F 18.3 °F 43% 29.94 in 10.0 mi WNW 8.1 mph - N/A   Clear
9:30 PM 38.5 °F 32.7 °F 20.1 °F 48% 29.94 in 10.0 mi WNW 8.1 mph - N/A   Clear
9:50 PM 39.6 °F 33.5 °F 19.9 °F 45% 29.94 in 10.0 mi WNW 9.2 mph - N/A   Clear
10:10 PM 39.4 °F 33.8 °F 20.3 °F 46% 29.94 in 10.0 mi WNW 8.1 mph - N/A   Scattered Clouds
10:30 PM 39.0 °F 34.0 °F 19.9 °F 46% 29.94 in 10.0 mi WNW 6.9 mph - N/A   Scattered Clouds
10:50 PM 39.7 °F 34.3 °F 22.3 °F 50% 29.94 in 10.0 mi WNW 8.1 mph - N/A   Clear
11:10 PM 40.5 °F 35.1 °F 23.0 °F 50% 29.94 in 10.0 mi WNW 8.1 mph - N/A   Scattered Clouds
11:30 PM 41.2 °F 36.6 °F 22.5 °F 47% 29.93 in 10.0 mi WNW 6.9 mph - N/A   Mostly Cloudy
11:50 PM 42.1 °F 37.7 °F 23.2 °F 47% 29.93 in 10.0 mi West 6.9 mph - N/A   Overcast